Regional Weather Roundup
Issued by NWS

Home | Current Version | Previous Version | Graphics & Text | Print | Product List | Glossary Off
Versions: 1 2 3 4 5 6 7 8 9 10 11 12 13 14 15 16 17 18 19 20 21 22 23 24 25 26 27 28 29 30 31 32 33 34 35 36 37 38 39 40 41 42 43 44 45 46 47 48 49 50

000
ASUS43 KMKX 301111
RWRWI

WISCONSIN REGIONAL WEATHER ROUNDUP
NATIONAL WEATHER SERVICE MILWAUKEE/SULLIVAN WI
600 AM CDT THU JUL 30 2015

NOTE: "FAIR" INDICATES FEW OR NO CLOUDS BELOW 12,000 FEET WITH NO
SIGNIFICANT WEATHER AND/OR OBSTRUCTIONS TO VISIBILITY.

WIZ001-002-006>008-014>016-023>028-301200-
NORTHWEST WISCONSIN

CITY           SKY/WX    TMP DP  RH WIND       PRES   REMARKS
SUPERIOR ARPT  CLEAR     62  56  83 W9        29.93R
ASHLAND        CLEAR     62  56  80 SW8       29.91R
HAYWARD        CLEAR     57  53  86 CALM      29.96R
SIREN          CLEAR     62  55  76 W7        29.98R
CUMBERLAND     CLEAR     59  54  82 W5        29.99R
RICE LAKE      CLEAR     60  55  83 SW3       30.00S
CHETEK         CLEAR     64  56  77 W6        29.99R
LADYSMITH      CLEAR     61  55  82 SW6       29.99R
EAU CLAIRE     CLEAR     61  55  81 SW9       29.99R
MENOMONIE      CLEAR     64  55  74 SW9       30.01R
NEW RICHMOND   CLEAR     61  54  78 SW7       30.01R
OSCEOLA        CLEAR     64  56  75 W8        30.02S
$$

WIZ003>005-009-010-017-018-301200-
NORTH CENTRAL WISCONSIN

CITY           SKY/WX    TMP DP  RH WIND       PRES   REMARKS
MANITOWISH WTR CLEAR     62  55  78 W10G17    29.92R
ARBOR VITAE    CLEAR     62  55  79 W9        29.93R
WOODRUFF       CLEAR     62  55  79 W9        29.93R
RHINELANDER    CLEAR     60  53  77 W10       29.94R
EAGLE RIVER    CLEAR     62  51  66 W13       29.91R
LAND O LAKES   CLEAR     61  52  72 W7        29.91S
PHILLIPS       CLEAR     59  55  85 W5        29.95R
TOMAHAWK       CLEAR     61  54  77 W7        29.96R
MEDFORD        CLEAR     59  55  88 W6        29.98S
MERRILL        NOT AVBL
$$

WIZ029-030-035-036-043>047-301200-
CENTRAL WISCONSIN

CITY           SKY/WX    TMP DP  RH WIND       PRES   REMARKS
WAUSAU         CLEAR     64  55  72 NW9       29.95R
MOSINEE        CLEAR     61  55  82 W8        29.99R
MARSHFIELD     CLEAR     60  53  77 W7        29.99R
STEVENS POINT  CLEAR     62  54  74 W7        29.98S
WAUPACA        CLEAR     66  55  67 W7        29.97R
WAUTOMA        CLEAR     63  55  75 W5        29.99S
WISC RAPIDS    CLEAR     63  53  70 W7        30.00R
CAMP DOUGLAS   CLEAR     59  59  99 W7        30.01R
$$

WIZ011>013-019>022-031-037>040-048>050-301200-
NORTHEAST WISCONSIN

CITY           SKY/WX    TMP DP  RH WIND       PRES   REMARKS
ANTIGO         CLEAR     59  55  85 W10       29.95R
SHAWANO        CLEAR     65  55  70 W8        29.94R
OCONTO         CLEAR     62  57  82 W7        29.90R
STURGEON BAY   CLEAR     66  54  63 W13G20    29.91S
GREEN BAY      CLEAR     65  55  70 W12       29.93R
MANITOWOC      CLEAR     66  56  70 MISG      29.94R
APPLETON       CLEAR     61  54  77 W6        29.96S
CLINTONVILLE   CLEAR     63  54  72 W8        29.94S
OSHKOSH        CLEAR     66  54  65 W7        29.97R
$$

WIZ032>034-041-042-053>061-301200-
SOUTHWEST WISCONSIN

CITY           SKY/WX    TMP DP  RH WIND       PRES   REMARKS
LA CROSSE      CLEAR     67  55  65 CALM      30.03R
SPARTA         CLEAR     62  54  74 SW3       30.03R
VIROQUA        CLEAR     59  56  90 W7        30.06R
BOSCOBEL       CLEAR     60  57  89 SW5       30.06R
PRAIRIE DU CHI CLEAR     64  56  75 W8        30.06S
PLATTEVILLE    CLEAR     60  58  93 W6        30.07S
$$

WIZ056-057-062-063-064-067-068-301200-
SOUTH CENTRAL WISCONSIN

CITY           SKY/WX    TMP DP  RH WIND       PRES   REMARKS
REEDSBURG      CLEAR     63  56  78 SW5       30.03R
BARABOO/DELLS  CLEAR     61  54  79 SW6       30.03R
LONE ROCK      CLEAR     63  57  81 W3        30.05R
MINERAL POINT  CLEAR     61  57  88 W5        30.07R
MADISON        CLEAR     66  56  70 W6        30.02R
MIDDLETON      CLEAR     61  57  88 W3        30.04R
WATERTOWN      CLEAR     62  59  90 W3        30.01S
MONROE         CLEAR     63  57  82 W14       30.06R
JANESVILLE     CLEAR     63  57  82 W6        30.04R
$$

WIZ051-052-058>065-066-070>072-301200-
SOUTHEAST WISCONSIN

CITY           SKY/WX    TMP DP  RH WIND       PRES   REMARKS
MILWAUKEE      CLEAR     67  54  63 W7        29.99R
WAUKESHA       CLEAR     63  54  72 W8        30.02R
MILWAUKEE/TIMM CLEAR     63  52  67 W7        30.00R
RACINE         CLEAR     64  55  72 W7        30.02R
BURLINGTON     CLEAR     60  54  80 W5        30.02R
KENOSHA        CLEAR     61  55  81 W8        30.01S
FOND DU LAC    CLEAR     64  55  72 W9        29.98R
SHEBOYGAN      CLEAR     66  55  67 W12       29.96R
WEST BEND      CLEAR     63  52  67 W7        29.99R
JUNEAU         CLEAR     59  55  85 W6        30.01S
$$

LSZ147-162-301200-
LAKE SUPERIOR

STATION/POSITION TIME  TEMP    WIND        PRES    WAVE
                       AIR SEA DIR/SP/G            HT/PER
                 (UTC) (F)     (DEG/KT/KT) (MB)    (FT/S)
W MID LAKE BUOY  1050   61 54  260/ 21/ 23 1008.6R   5/ 6
DEVILS ISLAND    1100   62     250/ 23/ 29 1011.1R
PORT WING        1000   68     240/ 14/ 26 1012.5
SAXON HARBOR     1000   68                 1011.5R
$$

LMZ867-665-643>646-301200-
LAKE MICHIGAN

STATION/POSITION TIME  TEMP    WIND        PRES    WAVE
                       AIR SEA DIR/SP/G            HT/PER
                 (UTC) (F)     (DEG/KT/KT) (MB)    (FT/S)
CHAMBERS ISLAND  1000   67     220/  8/ 15 1010.8S
S GREEN BAY BUOY 1100   64 64  240/ 12/ 16 1014.0R
N MID LAKE BUOY  1050   70 69  250/ 19/ 23 1009.4R   4/ 4
NORTHPORT PIER   1000   70     250/  7/ 13 1010.5R
SISTER BAY       1014   70     320/ 21/ 28   N/A
ALGOMA LAKESHORE 1012          240/  7/ 12   N/A
SHEBOYGAN LAKESH 1100   69     260/ 11/ 13 1014.3R
PORT WASHINGTON  1000   69     280/  7/  9 1014.9S
ATWATER BUOY     1100   68     260/ 12/ 14 1016.7R
MILWAUKEE LAKESH 1000   70     270/  8/ 11   N/A
KENOSHA   LAKESH 1100   67     270/  9/ 13 1015.9R
$$

TC  - TEMPERATURE IN CELSIUS
VSB - VISIBILITY IN STATUTE MILES
WCI - WIND CHILL INDEX
HX  - HEAT INDEX



USA.gov is the U.S. government's official web portal to all federal, state and local government web resources and services.